FENGYUN 1C DEB, 31737

Orbit data source: Space-Track

FENGYUN 1C DEB, 31737 is space debris in SSO originally from a launch on Mon, 10 May 1999 UTC launched from the Taiyaun Space Center, China (TSC). Fengyun 1C debris stems from the Chinese weather satellite Fengyun-1C, which was intentionally destroyed by a Chinese anti-satellite missile in 2007. This event dramatically increased the amount of space debris, with thousands of trackable fragments posing hazards to satellites and human spaceflight. The Fengyun 1C debris cloud has become a focal point in discussions about space sustainability and the need for international regulations to prevent the creation of new debris.

Loading next visibility...
Identifier
31737, 1999-025CEL
Orbit
SSO
Country
Flag of CNCN / PRC
Related business
Manufacturer
Unknown
Mission
Spacecraft
Bus & Motor
Unknown
Mass
Unknown
Launch date (UTC)
1999-05-10 (27 years ago)
Launch vehicle
Unknown
Launch site
Taiyaun Space Center, China (TSC)
Object type
Payload
Rocket body
Debris
Shape & HBR
Unknown shape, 0.1 m
Radar Cross Section
Small (<0.1 m²)

Expand to show TLE details & history
Last TLE update: 2 days ago

TLE from 2 days ago
0 FENGYUN 1C DEB
1 31737U 99025CEL 26236.34144885  .00001792  00000-0  26028-3 0  9992
2 31737  97.8922 266.8966 0142550 282.1577 141.3946 14.70553639 19407
Epoch: 2026-08-24T08:11Z
TLE epoch observation values (Epoch: 2026-08-24T08:11:41.180Z)
Latitude
63.53122°
Longitude
155.27339°
Altitude
749.192 km
Speed
7.444 km/s
True Right ascension
16h 43m 16s
True Declination
63° 23' 37"
Sunlit
Object was in daylight at epoch
Visualization orbit readout
Latitude
Unknown
Longitude
Unknown
Altitude
Unknown
Speed
Unknown
Apparent Right ascension
Unknown
Apparent Declination
Unknown
Sunlit
N/A
Visualization observer readout
Local Sidereal Time
01:12:34
Azimuth
Unknown
Elevation
Unknown
Doppler factor
Unknown
Orbital elements
Apogee altitude
756.63 km
Perigee altitude
556.077 km
Semi-major axis
7,034.49 km
Eccentricity
0.01426
Inclination
97.8922°
RAAN
266.8966°
Arg. of periapsis
282.1577°
True anomaly
142.39977°
Mean anomaly
141.3946°
Eccentric anomaly
141.89858°
Mean motion
3.6787 °/min
Orbital period
97.86 mins
BSTAR
0.00026028
Loading maneuver chart data...
Computing Atmospheric mass density...
Loading historical data...
Loading historical data...
Loading historical data...
Loading historical data...
Loading historical data...
Loading historical data...
Loading historical data...

Documentation

Showing up to 5 results
|